Flag for Canada Weather past 2 weeks in Rainy River, Ontario, Canada

Now
-1 °F

Sunny.


Feels Like: -17 °F
Forecast: -13 / 15 °F
Wind: 10 mph from West

Location: Baudette International Airport

Current Time: Mar 4, 2015 at 7:02:01 PM

Latest Report: Mar 4, 2015 at 5:53 PM


Visibility: 10 mi

Pressure: 30.34 "Hg

Humidity: 59%

Dew point: -12 °F

Location of Rainy RiverLocation

Historic Weather in Rainy River — Graph

°F

Rainy River temperature yesterday

Maximum temperature yesterday: 25 °F (at 4:53 AM)
Minimum temperature yesterday: -5 °F (at 11:53 PM)
Average temperature yesterday: 11 °F

Past Weeks' High & Low Weather Summary

 TemperatureHumidityPressure
High25 °F (Feb 24, 1:53 AM)88% (Mar 2, 2:53 AM)30.77 "Hg (Mar 2, 2:53 AM)
Low-29 °F (Feb 22, 5:53 AM)33% (Feb 27, 4:53 PM)29.56 "Hg (Feb 23, 10:02 PM)
Average0 °F67%30.19 "Hg
* Reported Feb 17 5:53 PM — Mar 4 5:53 PM, Rainy River, Weather by CustomWeather, © 2015

Note: Actual official high and low records may vary slightly from our data, if they occured in-between our weather recording intervals... More about our weather records

Advertising

Rainy River weather history for previous 24 hours

 ConditionsComfort  
Time TempWeatherWind HumidityBarometerVisibility
5:53 PM
Wed, Mar 4
-1 °FSunny.10 mph59%30.34 "Hg10 mi
4:53 PM1 °FSunny.12 mph56%30.32 "Hg10 mi
3:53 PM0 °FPassing clouds.12 mph59%30.31 "Hg10 mi
2:53 PM-1 °FMostly cloudy.13 mph59%30.30 "Hg10 mi
1:53 PM-1 °FScattered clouds.13 mph56%30.28 "Hg10 mi
12:53 PM-2 °FSunny.16 mph56%30.27 "Hg10 mi
11:53 AM-4 °FPassing clouds.15 mph61%30.25 "Hg10 mi
10:53 AM-6 °FPassing clouds.13 mph64%30.23 "Hg10 mi
9:53 AM-9 °FSunny.13 mph67%30.21 "Hg10 mi
8:53 AM-11 °FSunny.15 mph70%30.18 "Hg10 mi
7:53 AM-14 °FSunny.9 mph74%30.15 "Hg10 mi
6:53 AM-14 °FPassing clouds.9 mph74%30.12 "Hg10 mi
5:53 AM-13 °FClear.9 mph74%30.10 "Hg10 mi
4:53 AM-14 °FClear.5 mph74%30.06 "Hg10 mi
3:53 AM-13 °FClear.6 mph78%30.04 "Hg10 mi
2:53 AM-11 °FClear.6 mph78%30.02 "Hg6 mi
1:53 AMN/AClear.8 mphN/A30.01 "Hg10 mi
12:53 AM-7 °FClear.7 mph75%29.99 "Hg10 mi
11:53 PM
Tue, Mar 3
-5 °FPassing clouds.9 mph75%29.98 "Hg10 mi
10:53 PM-3 °FPassing clouds.10 mph75%29.96 "Hg10 mi
9:53 PM-2 °FPassing clouds.10 mph75%29.94 "Hg9 mi
9:04 PM-1 °FPassing clouds.12 mph79%29.84 "Hg8 mi
8:53 PM-1 °FPassing clouds.13 mph79%29.92 "Hg10 mi
7:53 PM1 °FOvercast.13 mph75%29.89 "Hg4 mi
Weather by CustomWeather, © 2015

See weather overviewHow to use our weather pages